Time,TemperatureF,DewpointF,PressureIn,WindDirection,WindDirectionDegrees,WindSpeedMPH,WindSpeedGustMPH,Humidity,HourlyPrecipIn,Conditions,Clouds,dailyrainin,SoftwareType,DateUTC
2013-04-16 00:00:00,57.5,53.3,29.89,NW,316,5.0,7.0,86,0.00,,---,0.00,VWS V14.00,2013-04-16 04:00:00,
2013-04-16 00:30:00,57.0,55.3,29.88,ESE,122,0.0,5.0,94,0.00,,---,0.00,VWS V14.00,2013-04-16 04:30:00,
2013-04-16 01:00:00,53.6,51.3,29.90,NE,39,3.0,16.0,92,0.00,,---,0.00,VWS V14.00,2013-04-16 05:00:00,
2013-04-16 01:30:00,49.5,47.0,29.91,NNW,348,11.0,14.0,91,0.00,,---,0.00,VWS V14.00,2013-04-16 05:30:00,
2013-04-16 02:00:00,48.2,46.0,29.93,NE,36,9.0,15.0,92,0.00,,---,0.00,VWS V14.00,2013-04-16 06:00:00,
2013-04-16 02:30:00,47.5,45.6,29.94,NNE,13,4.0,14.0,93,0.00,,---,0.00,VWS V14.00,2013-04-16 06:30:00,
2013-04-16 03:00:00,47.3,45.4,29.93,NNE,22,3.0,11.0,93,0.00,,---,0.00,VWS V14.00,2013-04-16 07:00:00,
2013-04-16 03:30:00,47.4,45.5,29.91,NE,56,1.0,10.0,93,0.00,,---,0.00,VWS V14.00,2013-04-16 07:30:00,
2013-04-16 04:00:00,47.5,45.6,29.91,NNE,25,3.0,8.0,93,0.00,,---,0.00,VWS V14.00,2013-04-16 08:00:00,
2013-04-16 04:30:00,47.4,45.5,29.92,North,356,3.0,7.0,93,0.00,,---,0.00,VWS V14.00,2013-04-16 08:30:00,
2013-04-16 05:00:00,46.7,45.3,29.94,NE,46,3.0,17.0,95,0.17,,---,0.17,VWS V14.00,2013-04-16 09:00:00,
2013-04-16 05:30:00,46.4,45.3,29.96,North,9,2.0,7.0,96,0.23,,---,0.23,VWS V14.00,2013-04-16 09:30:00,
2013-04-16 06:00:00,46.6,45.5,29.97,NW,322,3.0,3.0,96,0.25,,---,0.25,VWS V14.00,2013-04-16 10:00:00,
2013-04-16 06:30:00,46.6,45.5,29.98,North,356,2.0,5.0,96,0.09,,---,0.26,VWS V14.00,2013-04-16 10:30:00,
2013-04-16 07:00:00,46.5,45.4,29.99,North,352,0.0,5.0,96,0.05,,---,0.28,VWS V14.00,2013-04-16 11:00:00,
2013-04-16 07:30:00,46.5,45.4,30.00,NNW,331,7.0,8.0,96,0.04,,---,0.29,VWS V14.00,2013-04-16 11:30:00,
2013-04-16 08:00:00,45.6,44.0,30.04,NW,323,12.0,15.0,94,0.04,,---,0.30,VWS V14.00,2013-04-16 12:00:00,
2013-04-16 08:30:00,44.8,43.5,30.05,NW,326,9.0,13.0,95,0.02,,---,0.30,VWS V14.00,2013-04-16 12:30:00,
2013-04-16 09:00:00,44.2,42.6,30.06,NNE,16,3.0,12.0,94,0.01,,---,0.30,VWS V14.00,2013-04-16 13:00:00,
2013-04-16 09:30:00,44.4,41.7,30.10,NNW,331,4.0,10.0,90,0.00,,---,0.30,VWS V14.00,2013-04-16 13:30:00,
2013-04-16 10:00:00,44.2,41.5,30.09,WNW,291,3.0,7.0,90,0.00,,---,0.30,VWS V14.00,2013-04-16 14:00:00,
2013-04-16 10:30:00,44.5,41.8,30.09,NW,314,5.0,5.0,90,0.00,,---,0.30,VWS V14.01,2013-04-16 14:30:00,
2013-04-16 11:00:00,45.2,42.2,30.07,NNE,32,3.0,6.0,89,0.00,,---,0.30,VWS V14.00,2013-04-16 15:00:00,
2013-04-16 11:30:00,46.8,42.8,30.07,NNW,327,4.0,8.0,86,0.00,,---,0.30,VWS V14.00,2013-04-16 15:30:00,
2013-04-16 12:00:00,48.3,44.0,30.10,NW,304,4.0,6.0,85,0.00,,---,0.30,VWS V14.00,2013-04-16 16:00:00,
2013-04-16 12:30:00,50.3,45.3,30.09,NE,34,2.0,10.0,83,0.00,,---,0.30,VWS V14.00,2013-04-16 16:30:00,
2013-04-16 13:00:00,51.4,45.5,30.11,NNW,328,3.0,8.0,80,0.00,,---,0.30,VWS V14.00,2013-04-16 17:00:00,
2013-04-16 13:30:00,51.4,46.1,30.14,NW,304,5.0,9.0,82,0.00,,---,0.30,VWS V14.00,2013-04-16 17:30:00,
2013-04-16 14:00:00,51.2,45.6,30.15,WNW,298,9.0,12.0,81,0.00,,---,0.30,VWS V14.00,2013-04-16 18:00:00,
2013-04-16 14:30:00,50.8,45.5,30.12,NNW,335,4.0,10.0,82,0.00,,---,0.30,VWS V14.00,2013-04-16 18:30:00,
2013-04-16 15:00:00,51.1,45.2,30.13,North,356,2.0,9.0,80,0.00,,---,0.30,VWS V14.00,2013-04-16 19:00:00,
2013-04-16 15:30:00,51.3,45.0,30.14,NW,323,5.0,8.0,79,0.00,,---,0.30,VWS V14.00,2013-04-16 19:30:00,
2013-04-16 16:00:00,50.6,44.3,30.14,North,9,3.0,10.0,79,0.00,,---,0.30,VWS V14.00,2013-04-16 20:00:00,
2013-04-16 16:30:00,52.1,43.7,30.13,NNW,333,6.0,10.0,73,0.00,,---,0.30,VWS V14.00,2013-04-16 20:30:00,
2013-04-16 17:00:00,52.2,44.2,30.14,NW,326,5.0,9.0,74,0.00,,---,0.30,VWS V14.00,2013-04-16 21:00:00,
2013-04-16 17:30:00,52.4,42.5,30.17,NNW,328,6.0,11.0,69,0.00,,---,0.30,VWS V14.00,2013-04-16 21:30:00,
2013-04-16 18:00:00,51.9,41.3,30.16,NNW,330,4.0,10.0,67,0.00,,---,0.30,VWS V14.00,2013-04-16 22:00:00,
2013-04-16 18:30:00,52.0,41.8,30.16,North,353,4.0,8.0,68,0.00,,---,0.30,VWS V14.00,2013-04-16 22:30:00,
2013-04-16 19:00:00,52.0,40.6,30.16,North,10,4.0,10.0,65,0.00,,---,0.30,VWS V14.00,2013-04-16 23:00:00,
2013-04-16 19:30:00,51.4,39.2,30.16,NNE,32,4.0,9.0,63,0.00,,---,0.30,VWS V14.00,2013-04-16 23:30:00,
2013-04-16 20:00:00,50.7,39.4,30.18,NNW,330,3.0,8.0,65,0.00,,---,0.30,VWS V14.00,2013-04-17 00:00:00,
2013-04-16 20:30:00,49.7,38.4,30.17,NNE,19,4.0,9.0,65,0.00,,---,0.30,VWS V14.00,2013-04-17 00:30:00,
2013-04-16 21:00:00,48.4,39.1,30.19,North,354,7.0,9.0,70,0.00,,---,0.30,VWS V14.00,2013-04-17 01:00:00,
2013-04-16 21:30:00,47.6,38.3,30.18,NE,40,2.0,7.0,70,0.00,,---,0.30,VWS V14.00,2013-04-17 01:30:00,
2013-04-16 22:00:00,47.2,38.3,30.19,NNE,26,2.0,4.0,71,0.00,,---,0.30,VWS V14.00,2013-04-17 02:00:00,
2013-04-16 22:30:00,47.5,38.6,30.21,North,10,3.0,6.0,71,0.00,,---,0.30,VWS V14.00,2013-04-17 02:30:00,
2013-04-16 23:00:00,47.1,37.5,30.21,NNE,29,1.0,6.0,69,0.00,,---,0.30,VWS V14.00,2013-04-17 03:00:00,
2013-04-16 23:30:00,47.2,38.3,30.22,NE,37,1.0,3.0,71,0.00,,---,0.30,VWS V14.00,2013-04-17 03:30:00,